Location: Unspecified
(48.5670°N, 0.0000°E)
Time: 10:35:57
(UTC+00:00)

Vanguard 3 - Visible Passes

Search period start: 17 October 2019 00:00
Search period end: 27 October 2019 00:00
Orbit: 508 x 3262 km, 33.3° (Epoch: 17 October)

Date Brightness Start Highest point End Pass type
(mag) Time Alt. Az. Time Alt. Az. Time Alt. Az.
17 Oct 9.2 04:16:30 16° SSW 04:18:00 17° S 04:22:54 10° SSE visible
18 Oct 9.6 03:06:53 13° SSE 03:06:53 13° SSE 03:08:05 10° SE visible
18 Oct 9.6 05:12:55 10° SW 05:15:36 12° SSW 05:18:48 10° S visible
19 Oct 9.4 04:01:52 13° S 04:01:52 13° S 04:04:55 10° SSE visible
